Location: Tamazert
(32.6352°N, 5.2072°W)
Time: 06:57:04
(UTC+00:00)

Tiros 1 despin weight - Pass Details

Date: 06 October 2022
Orbit: 590 x 637 km, 48.2° (Epoch: 28 November)

Event Time Altitude Azimuth Distance (km) Brightness Sun altitude
Rises 15:54:40 0° 275° (W) 2,829 ? 24.5°
Reaches altitude 10° 15:57:34 10° 295° (WNW) 1,937 ? 23.9°
Maximum altitude 16:00:39 18° 339° (NNW) 1,486 ? 23.3°
Drops below altitude 10° 16:03:47 10° 23° (NNE) 1,960 ? 22.7°
Sets 16:06:44 0° 43° (NE) 2,877 ? 22.1°
